McGhee Tyson Airport Knoxville US
ICAO: KTYS
IATA: TYS
Category: Large
Scheduled Services: Yes

Elevation: 981 ft
TransAlt. 18000 ft.

Airport Communications:
KNOXVILLE APP/DEP:36.08
KNOXVILLE APP/DEP:118
ATIS:128.35
CLNC DEL:121.65
KNOXVILLE GND:121.9
ARNG OPS:41.5
PTD:30.3
NASHVILLE RDO:122.2
KNOXVILLE TWR:121.2
UNICOM:122.95

KTYS Zoom In..

If Map Doesn't Load, Click Here

Runways:

(A) RW 05L length 9005 ft width 150 ft
ILS 110.30 / hdg 48

(B) RW 05R length 9000 ft width 150 ft
---- / hdg 48

(C) RW 23L length 9000 ft width 150 ft
---- / hdg 228

(D) RW 23R length 9005 ft width 150 ft
ILS 111.70 / hdg 228

Location; KTYS
Day. 23 / Time. 07.53 Zulu
* Altimeter: 30.04
* Temperature: 22° c. 71.6°f.
* Wind from: KTY° Speed S kn.
Dewpoint: 21° c.
Visibility: 10 Statute Miles.
Clouds: Scattered 7000 ft.

KTYS 230753Z 00000KT 10SM SCT070 22/21 A3004 RMK AO2 SLP158 T02170206


Wind From KTY°
Speed S kn.

 
 
jpsmedia.com for Web Design worldairports.se 2018   terms of use